Location: Alsip
(41.6689°N, 87.7387°W)
Time: 10:28:08
(UTC+00:00)

GEOS 3 Rocket - Pass Details

Date: 24 October 2020
Orbit: 770 x 850 km, 115.0° (Epoch: 25 November)

Event Time Altitude Azimuth Distance (km) Brightness Sun altitude
Exits shadow 01:45:19 30° 216° (SW) 1,444 5.0 -32.0°
Maximum altitude 01:46:30 33° 242° (WSW) 1,357 5.0 -32.2°
Drops below altitude 10° 01:51:19 10° 306° (NW) 2,460 6.8 -33.1°
Sets 01:53:54 0° 316° (NW) 3,407 7.6 -33.6°
